Guymon, OK

6:06 AM CDT on September 30, 2016 (GMT -0500)
Guymon Municipal

Weather History for KGUY - September, 2013

Change the Weather History Date:

Saturday, September 21, 2013

  Actual Average Record
Temperature  
Mean Temperature 67 °F 68 °F  
Max Temperature 82 °F 83 °F 99 °F (2005)
Min Temperature 52 °F 54 °F 39 °F (1999)
Degree Days  
Heating Degree Days 0 2  
Month to date heating degree days 0 14  
Since 1 July heating degree days 0 15  
Cooling Degree Days 2 5  
Month to date cooling degree days 229 170  
Year to date cooling degree days 1780 1419  
Growing Degree Days 16 (Base 50)    
Moisture  
Dew Point 53 °F    
Average Humidity 66    
Maximum Humidity 89    
Minimum Humidity 42    
Precipitation  
Precipitation 0.00 in 0.06 in 1.05 in (2004)
Month to date precipitation 2.29 1.28  
Year to date precipitation 12.84 16.05  
Snow  
Snow 0.00 in - - ()
Month to date snowfall 0.0  
Since 1 July snowfall 0.0  
Since 1 September snowfall 0.0  
Snow Depth 0.00 in    
Sea Level Pressure  
Sea Level Pressure 29.91 in    
Wind  
Wind Speed 11 mph (South)    
Max Wind Speed 23 mph    
Max Gust Speed 29 mph    
Visibility 10 miles    
Events      
T = Trace of Precipitation, MM = Missing Value Source: NWS Daily Summary

Daily Weather History Graph

Daily Weather History Graph

Search for Another Location

Airport or City:

Trip Planner

Search our weather history database for the weather conditions in past years. The results will help you decide how hot, cold, wet, or windy it might be!

Date:

Astronomy

Sep. 21, 2013 Rise Set
Actual Time 7:33 AM CDT 7:43 PM CDT
Civil Twilight 7:07 AM CDT 8:09 PM CDT
Nautical Twilight 6:37 AM CDT 8:39 PM CDT
Astronomical Twilight 6:06 AM CDT 9:10 PM CDT
Moon 9:01 PM CDT (9/21) 9:49 AM CDT (9/21)
Length of Visible Light 13h 02m
Length of Day
12h 10m
Waning Gibbous, 94% of the Moon is Illuminated
Sep 21
Waning Gibbous
Sep 26
Last Quarter
Oct 4
New
Oct 11
First Quarter
Oct 18
Full

Hourly Weather History & Observations

Time (CDT) Temp. Heat Index Dew Point Humidity Pressure Visibility Wind Dir Wind Speed Gust Speed Precip Events Conditions
12:53 AM 55.9 °F - 51.1 °F 84% 30.03 in 10.0 mi SSW 8.1 mph - N/A   Clear
1:53 AM 55.9 °F - 50.0 °F 80% 30.01 in 10.0 mi SSW 6.9 mph - N/A   Clear
2:53 AM 55.0 °F - 48.9 °F 80% 30.00 in 10.0 mi SSW 8.1 mph - N/A   Clear
3:53 AM 54.0 °F - 48.9 °F 83% 29.99 in 10.0 mi SSW 6.9 mph - N/A   Clear
4:53 AM 54.0 °F - 48.0 °F 80% 29.99 in 10.0 mi SSW 5.8 mph - N/A   Clear
5:53 AM 53.1 °F - 48.0 °F 83% 29.99 in 10.0 mi SSW 5.8 mph - N/A   Clear
6:53 AM 53.1 °F - 46.9 °F 80% 29.99 in 10.0 mi South 5.8 mph - N/A   Clear
7:53 AM 52.0 °F - 48.0 °F 86% 30.00 in 10.0 mi South 5.8 mph - N/A   Clear
8:53 AM 59.0 °F - 48.9 °F 69% 29.99 in 10.0 mi South 8.1 mph - N/A   Clear
9:53 AM 66.0 °F - 51.1 °F 59% 29.97 in 10.0 mi South 11.5 mph - N/A   Clear
10:53 AM 70.0 °F - 53.1 °F 55% 29.96 in 10.0 mi South 13.8 mph 21.9 mph N/A   Clear
11:53 AM 73.9 °F - 55.9 °F 53% 29.94 in 10.0 mi SSW 17.3 mph 23.0 mph N/A   Clear
12:53 PM 75.9 °F - 57.0 °F 52% 29.92 in 10.0 mi SSW 13.8 mph 24.2 mph N/A   Clear
1:53 PM 79.0 °F - 57.0 °F 47% 29.89 in 10.0 mi SSW 16.1 mph 23.0 mph N/A   Clear
2:53 PM 80.1 °F 80.4 °F 57.0 °F 45% 29.86 in 10.0 mi SSW 18.4 mph 25.3 mph N/A   Clear
3:53 PM 81.0 °F 80.8 °F 55.9 °F 42% 29.83 in 10.0 mi South 17.3 mph 27.6 mph N/A   Clear
4:53 PM 81.0 °F 80.8 °F 55.9 °F 42% 29.81 in 10.0 mi South 16.1 mph 23.0 mph N/A   Clear
5:53 PM 81.0 °F 80.8 °F 55.9 °F 42% 29.80 in 10.0 mi South 17.3 mph 21.9 mph N/A   Clear
6:53 PM 79.0 °F - 55.9 °F 45% 29.79 in 10.0 mi South 13.8 mph - N/A   Clear
7:53 PM 73.0 °F - 55.9 °F 55% 29.80 in 10.0 mi SSE 8.1 mph - N/A   Clear
8:53 PM 70.0 °F - 55.9 °F 61% 29.80 in 10.0 mi SSE 9.2 mph - N/A   Clear
9:53 PM 66.0 °F - 55.0 °F 68% 29.81 in 10.0 mi SSE 9.2 mph - N/A   Clear
10:53 PM 66.0 °F - 51.1 °F 59% 29.81 in 10.0 mi South 9.2 mph - N/A   Clear
11:53 PM 63.0 °F - 50.0 °F 63% 29.80 in 10.0 mi South 11.5 mph - N/A   Clear